Location: Kitchener
(43.4500°N, 80.5000°W)
Time: 07:57:50
(UTC-05:00)

Daily predictions for brighter satellites

Satellite Brightness Start Highest point End
(mag) Time Altitude Azimuth Time Altitude Azimuth Time Altitude Azimuth
Cosmos 468 Rocket 4.0 17:39:56 10° SSW 17:45:07 84° ESE 17:50:18 10° NNE
Atlas Centaur 2 4.2 17:42:13 10° SW 17:45:26 16° SSW 17:48:17 10° SSE
CZ-4C R/B 4.4 17:42:16 10° NW 17:45:29 15° NNW 17:48:56 10° NNE
Cosmos 2360 Rocket 2.4 17:40:20 10° SSW 17:45:58 77° WNW 17:51:36 10° NNE
Cosmos 1937 Rocket 3.5 17:41:17 10° NNW 17:46:30 79° ENE 17:51:42 10° SSE
Cosmos 1328 Rocket 4.0 17:42:38 10° N 17:46:49 39° ENE 17:50:59 10° SSE
CENTAUR R/B 2.7 17:43:35 10° SSW 17:49:29 61° ESE 17:56:12 10° NE
Cosmos 1515 Rocket 4.2 17:48:22 10° N 17:52:27 34° ENE 17:56:31 10° SE
AQUARIUS 4.2 17:47:58 10° SSE 17:52:27 89° WSW 17:56:59 10° NNW
Cosmos 1634 Rocket 4.4 17:48:07 10° N 17:53:57 41° ENE 17:59:43 10° SE
ALOS 4.1 17:53:45 10° ENE 17:55:01 11° ENE 17:56:17 10° NE
SKYMED 2 4.4 17:51:13 10° NNE 17:55:07 31° E 17:58:58 10° SSE
Cosmos 2333 Rocket 3.2 17:51:43 10° SSE 17:56:20 27° ESE 18:00:58 10° NE
Cosmos 371 Rocket 4.1 17:57:00 10° SSE 18:01:09 30° E 18:05:19 10° NE
Cosmos 2151 4.2 17:58:17 10° SE 18:01:28 21° E 18:04:40 10° NE
Cosmos 1151 Rocket 3.7 18:02:41 10° NNE 18:06:32 32° ENE 18:10:21 10° SE
CORIOLIS 4.4 18:01:51 10° S 18:07:12 78° WSW 18:12:35 10° NNW
Cosmos 1500 Rocket 4.0 18:04:38 10° SSE 18:08:40 40° E 18:12:45 10° NNE
Lacrosse 5 3.2 18:07:11 10° W 18:11:46 32° NNW 18:16:21 10° NE
Cosmos 389 Rocket 3.2 18:08:29 10° NNW 18:12:03 58° W 18:15:32 10° S
Abrixas rocket 4.1 18:10:01 10° W 18:13:01 32° SW 18:16:01 10° SSE
Cosmos 2322 Rocket 4.3 18:09:12 10° W 18:13:30 22° NW 18:17:48 10° N
CZ-2C R/B 3.5 18:08:42 10° S 18:13:35 51° W 18:18:21 10° NNW
Cosmos 1340 Rocket 4.4 18:11:33 10° ESE 18:13:48 15° E 18:14:01 15° E
Cosmos 2219 Rocket 2.5 18:08:27 10° S 18:13:49 47° ESE 18:19:12 10° NE
Cosmos 2278 Rocket 2.6 18:10:47 10° NNW 18:16:06 39° ENE 18:21:24 10° SE
MSX 4.1 18:10:49 10° S 18:16:31 76° WSW 18:22:16 10° NNW
SMAP 4.1 18:12:18 10° S 18:16:49 51° W 18:21:22 10° NNW
Cosmos 44 Rocket 3.9 18:14:31 10° S 18:19:19 41° ESE 18:23:06 15° NE
Cosmos 1908 3.9 18:17:27 10° NNW 18:21:17 58° W 18:25:06 10° S
SL-14 R/B 3.8 18:21:33 10° SSE 18:25:06 35° E 18:28:31 11° NNE
Cosmos 1844 3.7 18:20:53 10° NNW 18:26:41 78° ENE 18:32:28 10° SSE
NOSS 0 Rocket 4.3 18:20:52 10° S 18:26:43 45° ESE 18:32:07 12° NE
OTV 4 2.1 18:24:39 10° WSW 18:27:14 27° S 18:29:10 14° SE
Cosmos 1763 Rocket 3.6 18:22:04 10° SSW 18:27:19 80° WNW 18:32:31 10° NNE
Cosmos 1484 Rocket 3.1 18:27:14 10° S 18:31:08 71° WSW 18:35:06 10° NNW
Resurs 01 Rocket 2.8 18:31:09 21° ENE 18:31:22 21° ENE 18:34:44 10° NNE
Cosmos 372 Rocket 4.2 18:30:10 10° N 18:35:03 43° ENE 18:39:53 10° SE
Cosmos 1674 3.8 18:31:23 10° SSW 18:35:03 46° WNW 18:38:47 10° N
COSMOS 2428 3.1 18:30:56 10° SW 18:36:37 66° WNW 18:42:19 10° NNE
CZ-4 R/B 4.4 18:40:08 10° SW 18:42:52 18° W 18:45:36 10° NW
Cosmos 2237 Rocket 2.4 18:37:32 10° S 18:42:54 49° ESE 18:46:42 19° NE
COSMO-SKYMED 1 2.7 18:38:53 10° N 18:43:14 79° WNW 18:47:33 10° SSW
Cosmos 2228 Rocket 4.3 18:41:08 10° NNW 18:45:20 45° W 18:49:33 10° SSW
Lacrosse 5 rocket 1.9 18:43:18 10° NNW 18:46:46 33° NE 18:47:13 32° NE
SL-16 R/B 3.3 18:42:41 10° SSE 18:46:58 23° ESE 18:46:58 23° ESE
Cosmos 2084 3.2 18:43:45 10° SSW 18:47:35 59° ESE 18:48:51 37° ENE
Cosmos 2279 Rocket 3.9 18:41:28 10° N 18:47:38 62° E 18:53:46 10° SSE
Cosmos 1300 2.6 18:44:54 10° N 18:48:46 87° E 18:52:35 10° S
NOAA 12 4.0 18:45:04 10° SSE 18:50:17 74° ENE 18:55:32 10° N
Cosmos 540 Rocket 3.5 18:45:48 10° S 18:50:52 60° ESE 18:54:24 20° NNE
USA 215 3.4 18:44:57 10° SE 18:51:32 79° SW 18:58:07 10° NW
Cosmos 2297 4.2 18:48:34 10° NNW 18:53:52 38° ENE 18:55:55 29° E
Cosmos 1726 2.3 18:52:58 10° NNW 18:56:43 71° W 19:00:28 10° S
DMSP B5D1-3 4.5 18:52:08 10° NNE 18:57:15 85° WNW 19:02:21 10° SSW
Cosmos 1125 Rocket 3.5 18:55:03 10° NNW 19:00:16 81° WSW 19:05:27 10° SSE
Meteor 1-11 4.1 18:57:00 10° S 19:02:38 75° E 19:08:23 10° NNE
Cosmos 2180 Rocket 4.4 18:57:18 10° N 19:03:26 68° E 19:09:35 10° SSE
Nadezhda 4 Rocket 4.2 19:03:52 10° SSE 19:09:44 45° E 19:13:55 19° NNE
Spot 2 Rocket 3.5 19:07:37 10° SSE 19:12:32 55° ENE 19:17:27 10° N
Meteor 1-28 Rocket 4.2 19:09:54 11° N 19:13:21 45° WNW 19:16:54 10° SSW
Cosmos 1844 Rocket 4.5 19:11:12 10° NW 19:16:11 33° WSW 19:21:08 10° SSW
DNEPR-1 R/B 4.5 19:09:33 10° SW 19:16:29 77° NW 19:19:39 29° NNE
Cosmos 2058 3.0 19:13:54 10° SSW 19:17:59 71° W 19:20:16 25° N
SJ-6B 3.2 19:14:24 10° S 19:18:24 67° W 19:22:30 10° NNW
FengYun 1-2 T 4.1 19:13:04 10° SSE 19:18:37 70° ENE 19:24:08 10° N
Transit 2A Rocket 4.3 19:18:19 10° NNW 19:22:42 86° ENE 19:23:01 76° SE
Cosmos 1980 4.0 19:24:19 10° SW 19:29:58 66° WNW 19:33:12 26° NNE
ALOS 2.1 19:27:02 10° SSE 19:31:42 88° E 19:36:24 10° NNW
Aureole 2 Rocket 3.9 19:33:31 10° SSW 19:35:45 36° SW 19:35:45 36° SW
Cosmos 44 3.5 19:31:57 10° SW 19:37:12 71° NW 19:38:08 57° N
Cosmos 1703 4.5 19:34:17 10° SSW 19:36:39 35° SSW 19:36:39 35° SSW
Cosmos 1805 Rocket 3.7 19:34:05 10° SSW 19:38:31 73° W 19:38:40 72° WNW
Cosmos 2333 Rocket 3.1 19:34:52 10° SW 19:40:18 47° WNW 19:43:41 22° N
CENTAUR R/B 3.9 19:34:56 10° W 19:40:36 34° NW 19:44:49 19° NNE
FENGYUN 3A 3.7 19:38:53 10° S 19:44:14 77° WSW 19:49:38 10° NNW
Cosmos 1340 Rocket 4.1 19:46:13 10° SW 19:49:44 39° W 19:49:44 39° W
Lacrosse 5 3.9 19:52:41 10° NW 19:55:44 18° N 19:55:44 18° N
ATLAS 5 CENTAUR R/B 4.5 19:53:31 10° N 19:54:26 12° N 19:54:26 12° N
Cosmos 2219 Rocket 3.9 19:53:09 10° WSW 19:57:59 28° NW 20:01:24 16° N
Cosmos 2278 Rocket 3.8 19:55:04 10° NW 20:00:04 33° WSW 20:05:03 10° SSW
BREEZE-M DEB (TANK) 4.5 19:47:24 10° W 20:03:40 55° N 20:04:06 54° N
Resurs 01 Rocket 3.1 20:08:42 34° WNW 20:08:42 34° WNW 20:11:48 10° NNW
H-2A ROCKET BODY 4.2 20:14:41 10° WSW 20:24:52 24° SSW 20:25:47 23° SSW
Lacrosse 5 rocket 4.2 20:22:26 10° WNW 20:22:58 13° WNW 20:22:58 13° WNW
Cosmos 2237 Rocket 3.9 20:22:27 10° WSW 20:27:13 28° NW 20:28:35 25° NNW
SL-16 R/B 3.3 20:25:11 10° SW 20:28:56 39° WSW 20:28:56 39° WSW
